AFR774 FMEE-FMMI

Flight info

Callsign AFR774
Flight time 1h 24m
Altitude 38000
Route LAKAZ DCT RERON DCT UNKIK DCT GODAT DCT TIGUR DCT TE TE1B
Aircraft A320/M-SDE3FGHIRWY/LB1

Departure

Time 2026-05-04 13:25
Airport Roland Garros Airport (FMEE)

Arrival

Time 2026-05-04 14:49
Airport Ivato International Airport (FMMI)
Time Latitude Longitude Altitude Speed Heading
2026-05-04 13:09 -20.89112 55.51292 75 ft 0 kts 211°
2026-05-04 13:15 -20.89110 55.51293 61 ft 2 kts 211°
2026-05-04 13:15 -20.89087 55.51307 75 ft 4 kts 208°
2026-05-04 13:16 -20.89066 55.51320 65 ft 1 kts 211°
2026-05-04 13:16 -20.89048 55.51335 66 ft 4 kts 245°
2026-05-04 13:16 -20.89046 55.51359 64 ft 4 kts 294°
2026-05-04 13:16 -20.89057 55.51384 64 ft 4 kts 296°
2026-05-04 13:17 -20.89062 55.51393 64 ft 0 kts 296°
2026-05-04 13:19 -20.89055 55.51378 65 ft 6 kts 296°
2026-05-04 13:19 -20.89036 55.51338 65 ft 5 kts 296°
2026-05-04 13:19 -20.89021 55.51304 67 ft 5 kts 296°
2026-05-04 13:20 -20.89013 55.51288 72 ft 1 kts 297°
2026-05-04 13:20 -20.89005 55.51272 72 ft 8 kts 297°
2026-05-04 13:20 -20.88979 55.51215 70 ft 8 kts 296°
2026-05-04 13:20 -20.88938 55.51184 68 ft 7 kts 340°
2026-05-04 13:21 -20.88894 55.51170 65 ft 6 kts 344°
2026-05-04 13:21 -20.88831 55.51147 63 ft 15 kts 341°
2026-05-04 13:21 -20.88776 55.51127 62 ft 7 kts 336°
2026-05-04 13:21 -20.88739 55.51092 57 ft 11 kts 302°
2026-05-04 13:22 -20.88702 55.50972 55 ft 18 kts 281°
2026-05-04 13:22 -20.88673 55.50836 53 ft 19 kts 284°
2026-05-04 13:22 -20.88646 55.50702 50 ft 18 kts 281°
2026-05-04 13:22 -20.88620 55.50579 51 ft 15 kts 294°
2026-05-04 13:23 -20.88576 55.50493 53 ft 9 kts 259°
2026-05-04 13:23 -20.88604 55.50501 53 ft 4 kts 119°
2026-05-04 13:23 -20.88613 55.50537 53 ft 0 kts 101°
2026-05-04 13:24 -20.88665 55.50793 56 ft 74 kts 103°
2026-05-04 13:24 -20.88821 55.51561 58 ft 135 kts 102°
2026-05-04 13:25 -20.89307 55.53958 892 ft 175 kts 104°
2026-05-04 13:25 -20.89557 55.55241 1564 ft 180 kts 102°
2026-05-04 13:25 -20.89584 55.56628 1995 ft 198 kts 76°
2026-05-04 13:25 -20.88701 55.57873 2362 ft 233 kts 36°
2026-05-04 13:26 -20.87043 55.58335 2779 ft 265 kts 360°
2026-05-04 13:26 -20.85166 55.58025 3508 ft 279 kts 348°
2026-05-04 13:26 -20.83266 55.57494 4426 ft 284 kts 345°
2026-05-04 13:26 -20.81356 55.56900 5371 ft 288 kts 339°
2026-05-04 13:27 -20.79639 55.55784 6253 ft 292 kts 316°
2026-05-04 13:27 -20.78352 55.54102 7118 ft 294 kts 296°
2026-05-04 13:27 -20.77660 55.52091 7956 ft 293 kts 277°
2026-05-04 13:27 -20.77434 55.49925 8847 ft 294 kts 273°
2026-05-04 13:28 -20.77245 55.47736 9728 ft 297 kts 272°
2026-05-04 13:28 -20.77062 55.45514 10345 ft 309 kts 272°
2026-05-04 13:28 -20.76874 55.43139 10598 ft 332 kts 272°
2026-05-04 13:28 -20.76675 55.40643 11118 ft 342 kts 272°
2026-05-04 13:29 -20.76466 55.38096 11803 ft 346 kts 272°
2026-05-04 13:29 -20.76251 55.35516 12503 ft 350 kts 272°
2026-05-04 13:29 -20.76033 55.32912 13179 ft 353 kts 272°
2026-05-04 13:29 -20.75810 55.30288 13839 ft 357 kts 272°
2026-05-04 13:30 -20.75585 55.27640 14425 ft 359 kts 272°
2026-05-04 13:30 -20.75361 55.24978 15012 ft 361 kts 272°
2026-05-04 13:30 -20.75136 55.22290 15614 ft 363 kts 272°
2026-05-04 13:30 -20.74908 55.19592 16226 ft 365 kts 272°
2026-05-04 13:31 -20.74679 55.16881 16839 ft 367 kts 272°
2026-05-04 13:31 -20.74445 55.14153 17444 ft 369 kts 272°
2026-05-04 13:31 -20.74215 55.11446 18033 ft 372 kts 272°
2026-05-04 13:31 -20.73981 55.08689 18585 ft 374 kts 272°
2026-05-04 13:32 -20.73747 55.05912 19017 ft 378 kts 272°
2026-05-04 13:32 -20.73508 55.03095 19421 ft 382 kts 272°
2026-05-04 13:32 -20.73265 55.00264 19844 ft 385 kts 272°
2026-05-04 13:32 -20.73018 54.97396 20264 ft 388 kts 272°
2026-05-04 13:33 -20.72772 54.94517 20692 ft 391 kts 272°
2026-05-04 13:33 -20.72521 54.91616 21120 ft 394 kts 272°
2026-05-04 13:33 -20.72268 54.88691 21544 ft 397 kts 272°
2026-05-04 13:33 -20.72015 54.85749 21967 ft 399 kts 272°
2026-05-04 13:34 -20.71749 54.82784 22389 ft 403 kts 275°
2026-05-04 13:34 -20.71158 54.79840 22803 ft 408 kts 282°
2026-05-04 13:34 -20.70676 54.77892 23077 ft 410 kts 282°
2026-05-04 13:34 -20.69943 54.74939 23478 ft 413 kts 282°
2026-05-04 13:35 -20.69205 54.71969 23849 ft 415 kts 282°
2026-05-04 13:35 -20.67721 54.65970 24554 ft 420 kts 282°
2026-05-04 13:35 -20.66975 54.62947 24903 ft 422 kts 282°
2026-05-04 13:36 -20.66227 54.59916 25262 ft 424 kts 283°
2026-05-04 13:36 -20.65470 54.56864 25612 ft 426 kts 283°
2026-05-04 13:36 -20.64711 54.53803 25959 ft 427 kts 283°
2026-05-04 13:36 -20.63947 54.50728 26299 ft 429 kts 283°
2026-05-04 13:37 -20.63180 54.47645 26638 ft 431 kts 283°
2026-05-04 13:37 -20.62411 54.44547 26984 ft 433 kts 283°
2026-05-04 13:37 -20.61640 54.41434 27326 ft 434 kts 283°
2026-05-04 13:37 -20.60863 54.38300 27661 ft 436 kts 283°
2026-05-04 13:38 -20.60094 54.35210 27986 ft 438 kts 283°
2026-05-04 13:38 -20.59307 54.32052 28318 ft 440 kts 284°
2026-05-04 13:38 -20.58516 54.28890 28652 ft 442 kts 284°
2026-05-04 13:38 -20.57718 54.25710 28967 ft 444 kts 284°
2026-05-04 13:39 -20.56919 54.22526 29313 ft 445 kts 284°
2026-05-04 13:39 -20.56119 54.19333 29622 ft 447 kts 284°
2026-05-04 13:39 -20.55318 54.16126 29944 ft 448 kts 284°
2026-05-04 13:39 -20.54518 54.12917 30249 ft 448 kts 284°
2026-05-04 13:40 -20.53711 54.09696 30481 ft 450 kts 284°
2026-05-04 13:40 -20.52900 54.06458 30721 ft 452 kts 284°
2026-05-04 13:40 -20.52088 54.03217 30968 ft 453 kts 284°
2026-05-04 13:40 -20.51273 53.99962 31213 ft 454 kts 284°
2026-05-04 13:41 -20.50454 53.96713 31565 ft 452 kts 283°
2026-05-04 13:41 -20.49636 53.93489 31992 ft 449 kts 283°
2026-05-04 13:41 -20.48833 53.90328 32396 ft 446 kts 283°
2026-05-04 13:42 -20.47225 53.83964 33181 ft 441 kts 283°
2026-05-04 13:42 -20.46431 53.80811 33564 ft 439 kts 283°
2026-05-04 13:42 -20.45641 53.77674 33955 ft 437 kts 282°
2026-05-04 13:42 -20.44856 53.74548 34302 ft 435 kts 282°
2026-05-04 13:43 -20.44073 53.71445 34644 ft 432 kts 282°
2026-05-04 13:43 -20.43295 53.68365 34988 ft 430 kts 282°
2026-05-04 13:43 -20.42515 53.65295 35292 ft 428 kts 282°
2026-05-04 13:43 -20.41735 53.62240 35592 ft 426 kts 282°
2026-05-04 13:44 -20.40959 53.59195 35871 ft 424 kts 282°
2026-05-04 13:44 -20.40188 53.56166 36141 ft 423 kts 282°
2026-05-04 13:44 -20.39429 53.53182 36404 ft 422 kts 282°
2026-05-04 13:44 -20.38663 53.50176 36660 ft 420 kts 282°
2026-05-04 13:45 -20.37896 53.47174 36906 ft 419 kts 282°
2026-05-04 13:45 -20.37134 53.44180 37151 ft 418 kts 282°
2026-05-04 13:45 -20.36373 53.41197 37385 ft 416 kts 282°
2026-05-04 13:45 -20.35617 53.38222 37611 ft 415 kts 282°
2026-05-04 13:46 -20.34862 53.35257 37842 ft 414 kts 282°
2026-05-04 13:46 -20.34107 53.32295 38031 ft 414 kts 282°
2026-05-04 13:46 -20.32599 53.26382 38081 ft 413 kts 282°
2026-05-04 13:47 -20.31091 53.20487 38083 ft 412 kts 282°
2026-05-04 13:47 -20.29577 53.14606 38081 ft 412 kts 282°
2026-05-04 13:48 -20.28055 53.08726 38081 ft 412 kts 282°
2026-05-04 13:48 -20.26547 53.02880 38083 ft 412 kts 282°
2026-05-04 13:49 -20.25030 52.96995 38082 ft 412 kts 282°
2026-05-04 13:49 -20.23511 52.91111 38088 ft 412 kts 282°
2026-05-04 13:50 -20.21989 52.85235 38092 ft 411 kts 282°
2026-05-04 13:50 -20.20481 52.79398 38094 ft 411 kts 282°
2026-05-04 13:51 -20.18957 52.73525 38093 ft 411 kts 282°
2026-05-04 13:51 -20.17434 52.67658 38094 ft 411 kts 282°
2026-05-04 13:52 -20.15145 52.58872 38096 ft 411 kts 282°
2026-05-04 13:53 -20.13623 52.53012 38095 ft 410 kts 282°
2026-05-04 13:53 -20.12096 52.47155 38093 ft 410 kts 282°
2026-05-04 13:54 -20.09802 52.38431 38089 ft 410 kts 282°
2026-05-04 13:55 -20.07512 52.29671 38094 ft 410 kts 282°
2026-05-04 13:55 -20.05209 52.20911 38087 ft 410 kts 282°
2026-05-04 13:56 -20.03666 52.15070 38092 ft 410 kts 282°
2026-05-04 13:57 -20.01358 52.06341 38092 ft 410 kts 282°
2026-05-04 13:58 -19.98279 51.94659 38088 ft 410 kts 282°
2026-05-04 13:58 -19.95955 51.85898 38093 ft 410 kts 282°
2026-05-04 13:59 -19.94403 51.80063 38090 ft 410 kts 282°
2026-05-04 14:00 -19.92066 51.71312 38089 ft 410 kts 282°
2026-05-04 14:00 -19.89741 51.62596 38093 ft 410 kts 282°
2026-05-04 14:01 -19.88182 51.56766 38087 ft 410 kts 282°
2026-05-04 14:02 -19.85842 51.48013 38092 ft 411 kts 282°
2026-05-04 14:02 -19.84281 51.42177 38094 ft 411 kts 282°
2026-05-04 14:03 -19.82711 51.36341 38093 ft 411 kts 282°
2026-05-04 14:03 -19.81149 51.30500 38092 ft 411 kts 283°
2026-05-04 14:04 -19.78792 51.21735 38097 ft 412 kts 283°
2026-05-04 14:04 -19.77212 51.15880 38101 ft 412 kts 283°
2026-05-04 14:05 -19.74837 51.07103 38104 ft 412 kts 283°
2026-05-04 14:06 -19.73264 51.01293 38103 ft 412 kts 283°
2026-05-04 14:06 -19.71677 50.95453 38102 ft 412 kts 283°
2026-05-04 14:07 -19.70091 50.89610 38103 ft 412 kts 283°
2026-05-04 14:07 -19.68504 50.83764 38097 ft 412 kts 283°
2026-05-04 14:08 -19.66906 50.77915 38095 ft 413 kts 283°
2026-05-04 14:08 -19.65320 50.72066 38100 ft 413 kts 283°
2026-05-04 14:09 -19.62925 50.63286 38094 ft 413 kts 283°
2026-05-04 14:10 -19.60509 50.54507 38093 ft 414 kts 283°
2026-05-04 14:10 -19.58899 50.48644 38096 ft 414 kts 283°
2026-05-04 14:11 -19.57288 50.42773 38101 ft 414 kts 283°
2026-05-04 14:11 -19.54884 50.34006 38097 ft 415 kts 283°
2026-05-04 14:12 -19.53260 50.28131 38101 ft 415 kts 283°
2026-05-04 14:13 -19.50822 50.19316 38096 ft 416 kts 283°
2026-05-04 14:13 -19.49199 50.13436 38093 ft 416 kts 283°
2026-05-04 14:14 -19.47572 50.07549 38105 ft 416 kts 283°
2026-05-04 14:14 -19.45125 49.98710 38108 ft 417 kts 283°
2026-05-04 14:15 -19.41848 49.86925 38113 ft 417 kts 284°
2026-05-04 14:16 -19.39383 49.78112 38105 ft 418 kts 284°
2026-05-04 14:17 -19.36916 49.69254 38104 ft 418 kts 284°
2026-05-04 14:18 -19.34445 49.60391 38102 ft 418 kts 284°
2026-05-04 14:19 -19.31122 49.48576 38103 ft 419 kts 284°
2026-05-04 14:19 -19.29460 49.42673 38095 ft 419 kts 284°
2026-05-04 14:20 -19.27800 49.36763 38111 ft 419 kts 284°
2026-05-04 14:20 -19.26136 49.30854 38097 ft 419 kts 284°
2026-05-04 14:21 -19.24437 49.24842 38095 ft 419 kts 284°
2026-05-04 14:21 -19.22768 49.18931 38102 ft 419 kts 284°
2026-05-04 14:22 -19.21094 49.13022 38106 ft 419 kts 284°
2026-05-04 14:22 -19.19422 49.07115 38110 ft 419 kts 284°
2026-05-04 14:23 -19.16905 48.98238 38102 ft 420 kts 284°
2026-05-04 14:24 -19.15216 48.92328 38112 ft 420 kts 284°
2026-05-04 14:24 -19.13532 48.86417 38126 ft 420 kts 284°
2026-05-04 14:25 -19.11854 48.80505 38137 ft 419 kts 284°
2026-05-04 14:25 -19.09337 48.71682 38153 ft 419 kts 284°
2026-05-04 14:26 -19.07646 48.65775 38138 ft 419 kts 284°
2026-05-04 14:26 -19.05961 48.59873 38150 ft 420 kts 284°
2026-05-04 14:27 -19.04554 48.54963 38167 ft 420 kts 284°
2026-05-04 14:27 -19.02853 48.49056 38162 ft 420 kts 284°
2026-05-04 14:28 -19.01152 48.43145 38172 ft 420 kts 284°
2026-05-04 14:28 -18.99177 48.36277 38111 ft 421 kts 284°
2026-05-04 14:29 -18.97747 48.31317 37670 ft 421 kts 284°
2026-05-04 14:29 -18.96054 48.25437 36908 ft 422 kts 284°
2026-05-04 14:30 -18.95203 48.22462 36208 ft 423 kts 284°
2026-05-04 14:30 -18.94437 48.19444 35410 ft 427 kts 282°
2026-05-04 14:30 -18.93171 48.13322 34275 ft 424 kts 279°
2026-05-04 14:31 -18.92592 48.10280 33659 ft 422 kts 279°
2026-05-04 14:31 -18.91408 48.04253 32577 ft 416 kts 280°
2026-05-04 14:32 -18.90170 47.98308 31500 ft 412 kts 280°
2026-05-04 14:32 -18.89552 47.95400 30986 ft 410 kts 280°
2026-05-04 14:32 -18.88926 47.92462 30461 ft 409 kts 280°
2026-05-04 14:32 -18.88305 47.89539 29889 ft 407 kts 280°
2026-05-04 14:33 -18.87690 47.86638 29386 ft 403 kts 280°
2026-05-04 14:33 -18.87082 47.83761 28893 ft 399 kts 280°
2026-05-04 14:33 -18.86482 47.80914 28402 ft 395 kts 280°
2026-05-04 14:33 -18.85887 47.78097 27939 ft 391 kts 281°
2026-05-04 14:34 -18.85297 47.75305 27480 ft 388 kts 281°
2026-05-04 14:34 -18.84711 47.72539 27031 ft 384 kts 281°
2026-05-04 14:34 -18.84131 47.69803 26593 ft 381 kts 280°
2026-05-04 14:34 -18.83555 47.67082 26156 ft 378 kts 280°
2026-05-04 14:35 -18.82985 47.64387 25707 ft 375 kts 281°
2026-05-04 14:35 -18.82419 47.61706 25269 ft 373 kts 281°
2026-05-04 14:35 -18.81856 47.59041 24815 ft 371 kts 280°
2026-05-04 14:35 -18.81295 47.56386 24368 ft 370 kts 282°
2026-05-04 14:36 -18.80733 47.53738 23908 ft 370 kts 282°
2026-05-04 14:36 -18.80170 47.51093 23389 ft 369 kts 282°
2026-05-04 14:36 -18.79868 47.48425 22920 ft 365 kts 267°
2026-05-04 14:36 -18.79987 47.45758 22461 ft 363 kts 265°
2026-05-04 14:37 -18.80119 47.43138 22010 ft 362 kts 265°
2026-05-04 14:37 -18.80253 47.40494 21558 ft 360 kts 265°
2026-05-04 14:37 -18.80383 47.37857 21098 ft 359 kts 266°
2026-05-04 14:37 -18.80513 47.35195 20284 ft 366 kts 265°
2026-05-04 14:38 -18.80644 47.32504 19380 ft 368 kts 265°
2026-05-04 14:38 -18.80774 47.29806 18503 ft 369 kts 265°
2026-05-04 14:38 -18.80901 47.27105 17528 ft 369 kts 264°
2026-05-04 14:38 -18.81025 47.24415 16615 ft 366 kts 265°
2026-05-04 14:39 -18.81151 47.21733 15778 ft 363 kts 265°
2026-05-04 14:39 -18.81275 47.19090 15028 ft 358 kts 265°
2026-05-04 14:39 -18.81396 47.16486 14283 ft 353 kts 265°
2026-05-04 14:40 -18.81609 47.11367 12607 ft 347 kts 270°
2026-05-04 14:40 -18.81059 47.08892 11480 ft 354 kts 295°
2026-05-04 14:40 -18.79470 47.06898 10463 ft 359 kts 324°
2026-05-04 14:40 -18.77209 47.05984 10136 ft 342 kts 354°
2026-05-04 14:41 -18.74959 47.06296 9999 ft 317 kts 24°
2026-05-04 14:41 -18.73295 47.07633 9867 ft 291 kts 57°
2026-05-04 14:41 -18.73018 47.11333 9624 ft 252 kts 117°
2026-05-04 14:42 -18.74391 47.14596 9378 ft 237 kts 113°
2026-05-04 14:42 -18.74888 47.16237 9254 ft 232 kts 105°
2026-05-04 14:42 -18.75195 47.17890 9148 ft 226 kts 102°
2026-05-04 14:43 -18.75440 47.19516 9000 ft 223 kts 102°
2026-05-04 14:43 -18.75677 47.21111 8726 ft 217 kts 102°
2026-05-04 14:43 -18.75910 47.22664 8459 ft 212 kts 102°
2026-05-04 14:43 -18.76139 47.24182 8187 ft 207 kts 100°
2026-05-04 14:44 -18.76357 47.25637 7935 ft 194 kts 102°
2026-05-04 14:44 -18.76561 47.26990 7695 ft 180 kts 101°
2026-05-04 14:44 -18.76748 47.28240 7493 ft 164 kts 101°
2026-05-04 14:44 -18.76921 47.29387 7289 ft 153 kts 100°
2026-05-04 14:45 -18.77084 47.30465 7111 ft 150 kts 100°
2026-05-04 14:45 -18.77247 47.31548 6922 ft 149 kts 101°
2026-05-04 14:45 -18.77408 47.32623 6739 ft 148 kts 99°
2026-05-04 14:45 -18.77568 47.33688 6564 ft 147 kts 99°
2026-05-04 14:46 -18.77729 47.34756 6365 ft 147 kts 100°
2026-05-04 14:46 -18.77888 47.35819 6176 ft 146 kts 100°
2026-05-04 14:46 -18.78046 47.36872 5987 ft 145 kts 99°
2026-05-04 14:46 -18.78203 47.37921 5807 ft 145 kts 100°
2026-05-04 14:47 -18.78360 47.38964 5618 ft 144 kts 101°
2026-05-04 14:47 -18.78518 47.40017 5426 ft 145 kts 99°
2026-05-04 14:47 -18.78668 47.41024 5256 ft 145 kts 99°
2026-05-04 14:47 -18.78826 47.42078 5059 ft 143 kts 98°
2026-05-04 14:48 -18.78988 47.43126 4841 ft 145 kts 100°
2026-05-04 14:48 -18.79146 47.44176 4617 ft 145 kts 99°
2026-05-04 14:48 -18.79301 47.45214 4436 ft 144 kts 98°
2026-05-04 14:48 -18.79442 47.46249 4269 ft 142 kts 99°
2026-05-04 14:49 -18.79598 47.47254 4163 ft 128 kts 99°
2026-05-04 14:49 -18.79712 47.48017 4164 ft 81 kts 99°
2026-05-04 14:49 -18.79773 47.48428 4160 ft 28 kts 99°
2026-05-04 14:49 -18.79791 47.48490 4160 ft 6 kts 157°
2026-05-04 14:50 -18.79807 47.48463 4160 ft 4 kts 286°
2026-05-04 14:50 -18.79787 47.48425 4160 ft 10 kts 300°
2026-05-04 14:50 -18.79765 47.48360 4160 ft 9 kts 283°
2026-05-04 14:50 -18.79756 47.48305 4160 ft 7 kts 279°
2026-05-04 14:51 -18.79750 47.48265 4161 ft 5 kts 279°
2026-05-04 14:51 -18.79745 47.48236 4161 ft 3 kts 279°
2026-05-04 14:51 -18.79746 47.48170 4162 ft 19 kts 249°
2026-05-04 14:51 -18.79785 47.48130 4163 ft 4 kts 213°
2026-05-04 14:52 -18.79797 47.48124 4164 ft 0 kts 207°
2026-05-04 14:52 -18.79799 47.48122 4164 ft 2 kts 207°
2026-05-04 14:52 -18.79808 47.48118 4164 ft 3 kts 203°
2026-05-04 14:52 -18.79829 47.48115 4164 ft 2 kts 184°
2026-05-04 14:53 -18.79872 47.48113 4165 ft 9 kts 182°
2026-05-04 14:53 -18.79931 47.48102 4166 ft 7 kts 189°
2026-05-04 14:53 -18.79968 47.48096 4166 ft 4 kts 189°
2026-05-04 14:53 -18.79988 47.48093 4166 ft 2 kts 189°
2026-05-04 14:54 -18.79992 47.48092 4166 ft 0 kts 188°